You are listening to:
LKPR Approach - Prague, Czech Republic

LKPR 060700Z 24008KT CAVOK 17/12 Q1022 NOSIG

If stream doesn't start automatically press the play button
If stream stops then reload player then press play